Portada
METAR-TAF:

METAR-TAF

Aeroports :

Kaixan, Iran

latitud: 33-59N, longitud: 051-27E, altitud: 982 m

Observació

L'informe es va fer fa 48 minuts, a les 22:00 UTC
Vent 2 kt amb direcció variable
Temperatura 5°C
Humitat 35%
Pressió 1022 hPa

METAR: OIFK 132200Z AUTO VRB02KT //// // ////// 05/M09 Q1022

Hora: 02:18 (22:48 UTC)


TAF: manca

Observacions i pronòstics meteorològics de més de 4000 aeroports (METAR i TAF).

Les estacions disponibles són els punts grocs i vermells al mapa.

Posi el ratolí al punt desitjat per veure el nom de l'estació.

Feu clic per veure les observacions i els pronòstics meteorològics.

Per canviar el mapa: feu clic els botons verds amb una creu de color negre per apropar; al botó verd amb un guió per allunyar la imatge; o en les fletxes verdes per a mapes adjacents.


METAR-TAF: